1526515633;45.0;0.0;0.0;0.0;22.0;40.3;1007.8;0.0;7.9;21.4
1526516233;45.0;0.0;0.0;0.0;22.0;39.1;1007.9;0.0;7.5;21.3
1526516834;45.0;0.0;0.0;0.0;22.0;39.2;1007.9;0.0;7.5;21.3
1526517434;45.0;0.0;0.0;0.0;22.0;40.9;1007.8;0.0;8.2;21.5
1526518034;45.0;0.0;0.0;0.0;22.0;41.1;1007.8;0.0;8.2;21.5
1526518634;45.0;0.0;0.0;0.0;22.1;41.1;1007.7;0.0;8.2;21.6
1526519234;45.0;0.0;0.0;0.0;22.1;41.1;1007.4;0.0;8.2;21.6
1526519834;45.0;0.0;0.0;0.0;22.1;41.1;1007.3;0.0;8.2;21.6
1526520434;45.0;0.0;0.0;0.0;22.1;41.2;1007.4;0.0;8.3;21.6
1526521034;45.0;0.0;0.0;0.0;22.1;41.2;1007.5;0.0;8.3;21.6
1526521634;45.0;0.0;0.0;0.0;22.1;41.2;1007.7;0.0;8.3;21.6
1526522235;45.0;0.0;0.0;0.0;22.1;41.2;1007.7;0.0;8.3;21.6
1526522835;45.0;0.0;0.0;0.0;22.1;41.2;1007.7;0.0;8.2;21.6
1526523435;45.0;0.0;0.0;0.0;22.0;41.3;1007.7;0.0;8.2;21.5
1526524036;45.0;0.0;0.0;0.0;22.0;41.4;1007.7;0.0;8.3;21.5
1526524636;45.0;0.0;0.0;0.0;22.0;40.9;1007.7;0.0;8.2;21.5
1526525236;45.0;0.0;0.0;0.0;22.0;39.3;1007.5;0.0;7.6;21.3
1526525836;45.0;0.0;0.0;0.0;22.0;40.4;1007.5;0.0;8.0;21.4
1526526436;45.0;0.0;0.0;0.0;22.1;41.1;1007.3;0.0;8.2;21.6
1526527036;45.0;0.0;0.0;0.0;22.0;41.5;1007.1;0.0;8.3;21.5
1526527636;45.0;0.0;0.0;0.0;22.0;41.6;1007.1;0.0;8.3;21.5
1526528236;45.0;0.0;0.0;0.0;22.0;41.8;1007.3;0.0;8.4;21.5
1526528836;45.0;0.0;0.0;0.0;22.0;42.0;1007.4;0.0;8.5;21.6
1526529436;45.0;0.0;0.0;0.0;22.0;41.3;1007.4;0.0;8.2;21.5
1526530036;45.0;0.0;0.0;0.0;22.0;40.4;1007.4;0.0;7.9;21.4
1526530637;45.0;0.0;0.0;0.0;22.0;41.8;1007.4;0.0;8.5;21.5
1526531237;45.0;0.0;0.0;0.0;22.0;41.9;1007.4;0.0;8.4;21.5
1526531837;45.0;0.0;0.0;0.0;22.0;42.2;1007.5;0.0;8.4;21.6
1526532437;45.0;0.0;0.0;0.0;21.9;42.3;1007.5;0.0;8.5;21.5
1526533037;45.0;0.0;0.0;0.0;21.9;40.7;1007.4;0.0;7.9;21.3
1526533637;45.0;0.0;0.0;0.0;21.9;41.7;1007.3;0.0;8.4;21.4
1526534237;45.0;0.0;0.0;0.0;21.8;42.5;1007.3;0.0;8.6;21.4
1526534837;45.0;0.0;0.0;0.0;21.8;42.7;1007.3;0.0;8.6;21.4
1526535437;45.0;0.0;0.0;0.0;21.8;42.9;1007.3;0.0;8.7;21.4
1526536038;45.0;0.0;0.0;0.0;21.8;43.1;1007.3;0.0;8.6;21.4
1526536638;45.0;0.0;0.0;0.0;21.8;42.1;1007.3;0.0;8.4;21.3
1526537238;45.0;0.0;0.0;0.0;21.9;41.7;1007.3;0.0;8.3;21.4
1526537838;45.0;0.0;0.0;0.0;22.0;42.0;1007.4;0.0;8.6;21.6
1526538438;45.0;0.0;0.0;0.0;22.0;42.1;1007.5;0.0;8.6;21.6
1526539038;45.0;0.0;0.0;0.0;22.1;41.9;1007.8;0.0;8.6;21.7
1526539638;45.0;0.0;0.0;0.0;22.1;41.5;1007.8;0.0;8.5;21.6
1526540238;45.0;0.0;0.0;0.0;22.2;41.3;1007.9;0.0;8.4;21.7
1526540838;45.0;0.0;0.0;0.0;22.2;42.6;1007.9;0.0;8.8;21.9
1526541438;45.0;0.0;0.0;0.0;22.1;43.4;1008.0;0.0;9.1;21.8
1526542039;45.0;0.0;0.0;0.0;22.1;43.7;1008.0;0.0;9.2;21.8
1526542639;45.0;0.0;0.0;0.0;22.1;44.3;1007.9;0.0;9.3;21.9
1526543239;45.0;0.0;0.0;0.0;22.1;44.3;1007.9;0.0;9.4;21.9
1526543839;45.0;0.0;0.0;0.0;22.2;44.4;1007.9;0.0;9.5;22.0
1526544439;45.0;0.0;0.0;0.0;22.2;44.2;1008.0;0.0;9.4;22.0
1526545039;45.0;0.0;0.0;0.0;22.2;42.9;1008.0;0.0;8.9;21.9
1526545639;45.0;0.0;0.0;0.0;22.2;42.5;1008.0;0.0;8.8;21.8
1526546239;45.0;0.0;0.0;0.0;22.2;44.2;1008.1;0.0;9.5;22.0
1526546839;45.0;0.0;0.0;0.0;22.2;44.8;1008.1;0.0;9.7;22.1
1526547439;45.0;0.0;0.0;0.0;22.3;44.6;1008.2;0.0;9.7;22.2
1526548040;45.0;0.0;0.0;0.0;22.3;44.2;1008.3;0.0;9.6;22.1
1526548640;45.0;0.0;0.0;0.0;22.3;44.2;1008.4;0.0;9.6;22.1
1526549240;45.0;0.0;0.0;0.0;22.3;44.0;1008.6;0.0;9.5;22.1
1526549840;45.0;0.0;0.0;0.0;22.4;43.8;1008.7;0.0;9.5;22.2
1526550440;45.0;0.0;0.0;0.0;22.3;43.8;1008.7;0.0;9.4;22.1
1526551040;45.0;0.0;0.0;0.0;22.3;43.5;1008.7;0.0;9.4;22.1
1526551640;45.0;0.0;0.0;0.0;22.3;43.2;1008.6;0.0;9.2;22.0
1526552240;45.0;0.0;0.0;0.0;22.3;43.3;1008.7;0.0;9.3;22.0
1526552840;45.0;0.0;0.0;0.0;22.3;43.0;1008.7;0.0;9.2;22.0
1526553440;45.0;0.0;0.0;0.0;22.3;42.7;1008.6;0.0;9.1;22.0
1526554041;45.0;0.0;0.0;0.0;22.3;42.4;1008.6;0.0;9.0;22.0
1526554641;45.0;0.0;0.0;0.0;22.4;42.3;1008.7;0.0;9.0;22.1
1526555241;45.0;0.0;0.0;0.0;22.4;43.2;1008.7;0.0;9.3;22.2
1526555841;45.0;0.0;0.0;0.0;22.5;43.2;1008.8;0.0;9.4;22.3
1526556441;45.0;0.0;0.0;0.0;22.5;43.4;1008.8;0.0;9.4;22.3
1526557041;45.0;0.0;0.0;0.0;22.5;43.3;1008.9;0.0;9.5;22.3
1526557641;45.0;0.0;0.0;0.0;22.5;42.6;8.370;-0.751
1526639944;0.091;20.629;704.932;0.378;355.779;21.536;8.370;-0.735
1526639947;0.091;20.630;704.930;0.378;355.778;21.535;8.371;-0.722
1526639962;0.091;20.629;705.245;0.378;355.937;21.534;8.371;-0.671
1526639966;0.091;20.630;705.262;0.378;355.946;21.537;8.370;-0.681
1526639969;0.091;20.627;705.245;0.378;355.937;21.538;8.370;-0.659
1526639973;0.091;20.626;705.202;0.378;355.915;21.536;8.370;-0.629
1526639976;0.091;20.629;705.231;0.378;355.930;21.537;8.371;-0.613
1526639981;0.091;20.628;705.159;0.378;355.894;21.537;8.371;-0.589
1526639984;0.091;20.630;705.197;0.378;355.913;21.537;8.370;-0.576
                                                                                                                                                                                                                                                                                                                                                                                                                                                                                                                                                                                                                                                                                                                                                                                                                                                                                                                                                                                                                                                                                                                                                                                                                                                                                                                                                                                                                                                                                                                                                                                                                                                                                                                                                                                                                                                                                                                                                                                                                                                                                                                                                                 